Regional Weather Roundup
Issued by NWS

Home | Current Version | Previous Version | Text Only | Print | Product List | Glossary Off
Versions: 1 2 3 4 5 6 7 8 9 10 11 12 13 14 15 16 17 18 19 20 21 22 23 24 25 26 27 28 29 30 31 32 33 34 35 36 37 38 39 40 41 42 43 44 45 46 47 48 49 50

000
ASUS43 KIND 312009
RWRIN

WEATHER ROUNDUP FOR INDIANA
NATIONAL WEATHER SERVICE INDIANAPOLIS IN
400 PM EDT TUE MAY 31 2016

NOTE: "FAIR" INDICATES FEW OR NO CLOUDS BELOW 12,000 FEET WITH NO
SIGNIFICANT WEATHER AND/OR OBSTRUCTIONS TO VISIBILITY.

* - STATION DOES NOT REPORT WEATHER SUCH AS PRECIPITATION OR FOG.

+ - STATION NOT QUALITY CONTROLLED BY THE NATIONAL WEATHER SERVICE.
    USE DATA WITH CAUTION...ESPECIALLY DEWPOINT AND RELATIVE
    HUMIDITY OBSERVATIONS.

INZ001>003-010>013-019-020-312100-
NORTHWEST INDIANA

CITY           SKY/WX    TMP DP  RH WIND       PRES   REMARKS
GARY /AIRPORT/ PTSUNNY   79  66  65 NE5       29.94F
KNOX *+          N/A     84  36  17 S8        29.95F
LA PORTE +     MOSUNNY   87  54  32 E12       29.97F
MICHIGAN CITY+ PTSUNNY   86  59  39 SE7       29.96F
MONTICELLO +   CLOUDY    86  45  24 SE9       29.94S
RENSSELAER +   PTSUNNY   73  63  68 N8        29.94F
VALPARAISO     TSTM      72  61  68 S24G32    30.00R

$$

LMZ046-743>745-312100-
SOUTHERN LAKE MICHIGAN

STATION/POSITION TIME  TEMP    WIND        PRES    WAVE
                       AIR SEA DIR/SP/G            HT
                 (UTC) (F)     (DEG/KT/KT) (MB)    (FT)
BURNS HARBOR     2000   73      70/ 11/ 17 1014.2F
MICHIGAN CITY    1900   81      90/  9/ 12   N/A
5NW MICH CITY    2000   70 63   50/  8/  8   N/A     1

$$

INZ004-005-014>016-021>024-312100-
NORTH CENTRAL INDIANA

CITY           SKY/WX    TMP DP  RH WIND       PRES   REMARKS
GOSHEN         SUNNY     86  51  29 MISG      29.98F
LOGANSPORT +   LGT RAIN  73  57  56 S3G17     29.98R
PERU/GRISSOM   PTSUNNY   84  56  38 SW9       29.95F
ROCHESTER +    SUNNY     90  54  29 CALM      29.96F
SOUTH BEND     MOSUNNY   82  53  36 E7        29.98F
WARSAW +       SUNNY     86  55  35 E8        29.98F

$$

INZ006>009-017-018-025>027-312100-
NORTHEAST INDIANA

CITY           SKY/WX    TMP DP  RH WIND       PRES   REMARKS
ANGOLA *+        N/A     84  48  28 E6        30.01F
AUBURN +       SUNNY     86  43  22 E6        30.01F
FORT WAYNE     PTSUNNY   85  56  37 NE12      29.99F
HUNTINGTON +   MOSUNNY  N/A N/A N/A E6        29.97F

$$

INZ028-029-035-036-043>045-051>053-312100-
WEST CENTRAL INDIANA

CITY           SKY/WX    TMP DP  RH WIND       PRES   REMARKS
CRAWFORDSVL +  SUNNY     87  55  33 S12G17    29.95F
GREENCASTLE +  CLOUDY    82  63  51 S8        29.96F
LAFAYETTE      CLOUDY    87  56  34 W9        29.93F
TERRE HAUTE    MOSUNNY   88  55  32 S13G18    29.94F

$$

INZ030>032-037>040-046>048-054>057-064-065-312100-
CENTRAL INDIANA

CITY           SKY/WX    TMP DP  RH WIND       PRES   REMARKS
CP ATTERBURY + MOSUNNY   82  59  44 S8        29.97F
COLUMBUS       PTSUNNY   86  55  35 S9        29.96F
FISHERS *+     CLOUDY    84  59  42 NW3       29.95
FRANKFORT +      N/A     88  22   9 W6        29.96F
GREENWOOD *+   PTSUNNY   81  55  41 SE7       29.99R
INDIANAPOLIS   MOSUNNY   86  59  39 SE13G20   29.95F
-EAGLE CREEK   MOSUNNY   86  55  34 VRB6      29.95F
KOKOMO *+      CLOUDY    84  55  37 E5        29.95F
MARION +       CLOUDY    87  53  30 E7        29.96F HAZE
SHELBYVILLE    CLOUDY    87  57  35 W14       29.95F
ZIONSVILLE +   CLOUDY    86  54  33 SE6       29.96F

$$

INZ033-034-041-042-049-050-058-059-312100-
EAST CENTRAL INDIANA

CITY           SKY/WX    TMP DP  RH WIND       PRES   REMARKS
MUNCIE         PTSUNNY   89  51  27 VRB5      29.96F

$$

INZ060-061-067>069-081>083-085>088-312100-
SOUTHWEST INDIANA

CITY           SKY/WX    TMP DP  RH WIND       PRES   REMARKS
EVANSVILLE     CLOUDY    86  59  39 S8        29.94F
HUNTINGBURG *+ CLOUDY    84  59  42 SE8       29.95F
WASHINGTON +   MOSUNNY   87  60  41 SE12      29.94F

$$

INZ062-063-066-070>080-084-089>092-312100-
SOUTH CENTRAL AND SOUTHEAST INDIANA

CITY           SKY/WX    TMP DP  RH WIND       PRES   REMARKS
BEDFORD +      MOSUNNY   86  66  51 SE8       29.95F
BLOOMINGTON    SUNNY     85  58  39 SW8       29.96F
MADISON *+     PTSUNNY   88  50  27 SE5       30.00F
NORTH VERNON + PTSUNNY   88  63  42 CALM      29.98F
SEYMOUR +      MOSUNNY   88  59  37 SW5       29.96F

$$




USA.gov is the U.S. government's official web portal to all federal, state and local government web resources and services.